{"data":{"norad_id":87569,"intl_designator":"","name":"UNKNOWN","alt_names":[],"object_type":"UNKNOWN","status":"UNKNOWN","operator":null,"country":null,"launch_date":null,"launch_site_code":null,"launch_vehicle":null,"mission":null,"orbit_class":"UNKNOWN","rcs_meters":null,"size_class":null,"mass_kg":null,"dimensions":null,"purposes":[],"wikipedia_slug":null,"has_3d_model":false,"image_url":null,"decayed_at":null,"tle_current":{"epoch":"2026-09-18T07:28:52.581216Z","epoch_age_seconds":203505,"freshness":"STALE","line1":"1 87569U          26261.31171969 -.00000038  00000+0  49765-4 0  9995","line2":"2 87569 101.9934  94.4919 0055882  64.9185 109.8724 12.68550166593919","mean_motion":12.68550166,"eccentricity":0.0055882,"inclination_deg":101.9934,"raan_deg":94.4919,"arg_perigee_deg":64.9185,"mean_anomaly_deg":109.8724,"bstar":4.9765e-5,"rev_number":59391,"period_min":113.51541614949,"perigee_km":1344.4536132128,"apogee_km":1431.2494071983,"semimajor_km":7765.9885102055,"source":"CELESTRAK","updated_at":"2026-09-20T09:00:32.476672Z"}}}